Regional Weather Roundup
Issued by NWS

Home | Current Version | Previous Version | Graphics & Text | Print | Product List | Glossary On
Versions: 1 2 3 4 5 6 7 8 9 10 11 12 13 14 15 16 17 18 19 20 21 22 23 24 25 26 27 28 29 30 31 32 33 34 35 36 37 38 39 40 41 42 43 44 45 46 47 48 49 50
000
ASUS45 KTFX 010010
RWRMT
MONTANA REGIONAL WEATHER ROUNDUP
NATIONAL WEATHER SERVICE GREAT FALLS MT
600 PM MDT TUE JUN 30 2015

NOTE: "FAIR" INDICATES FEW OR NO CLOUDS BELOW 12000 FEET WITH NO
SIGNIFICANT WEATHER AND/OR OBSTRUCTIONS TO VISIBILITY.

MTZ001>007-043-010100-
WEST OF THE DIVIDE

CITY           SKY/WX    TMP DP  RH WIND       PRES   REMARKS
KALISPELL      PTCLDY    91  41  17 VRB6      29.96F
MISSOULA       SUNNY     92  43  18 N14       29.98S
BUTTE          SUNNY     85  41  21 NW16G25   30.12R
MULLAN PASS    SUNNY     75  45  34 VRB7      30.22F
DEER LODGE       N/A     84  48  28 NW9       30.09S
EUREKA           N/A     90  52  27 W7        29.97F
HAMILTON         N/A     90  48  24 NW14      29.98F
PLAINS           N/A     92  48  22 NW8       29.96F
RONAN            N/A     91  49  23 N1        30.03S
THOMPSON FALLS   N/A     93  42  17 W13       29.99F
$$

MTZ008-052>055-010100-
SOUTHWEST MONTANA

CITY           SKY/WX    TMP DP  RH WIND       PRES   REMARKS
BOZEMAN        SUNNY     92  45  19 N12       30.00F
DILLON         SUNNY     91  45  20 N6        30.06S
W YELLOWSTONE  MOSUNNY   81  50  34 S16G26    30.20S
THREE FORKS      N/A     93  42  17 NW8       29.99F
TWIN BRIDGES     N/A     92  42  17 NW10      30.03F
$$

MTZ009-010-012-014-046-048-049-054-010100-
EAST SLOPES AND CENTRAL MONTANA

CITY           SKY/WX    TMP DP  RH WIND       PRES   REMARKS
CUT BANK       MOSUNNY   84  51  31 N12G23    29.99F
GREAT FALLS    SUNNY     91  40  16 NW13G23   29.95F
MALMSTROM AFB  MOSUNNY   90  37  15 N12G22    29.95S
HELENA         SUNNY     93  46  19 NW12G26   29.97S
CONRAD           N/A     87  54  32 W14       30.01S
$$

MTZ011-013-016-021-045-047-050-051-010100-
NORTH CENTRAL MONTANA

CITY           SKY/WX    TMP DP  RH WIND       PRES   REMARKS
HAVRE          SUNNY     87  53  31 NW21G36   29.91R
LEWISTOWN      SUNNY     88  41  19 NW14G25   29.98S
CHINOOK          N/A     86  54  32 W17G24    29.88R
FORT BENTON      N/A     90  48  24 NW13G23   29.92R
$$

MTZ017>020-022>027-061-062-010100-
NORTHEAST MONTANA

CITY           SKY/WX    TMP DP  RH WIND       PRES   REMARKS
JORDAN           N/A     92  45  19 NW17G28   29.82S
SIDNEY         MOSUNNY   75  66  73 N7        29.81F
WOLF POINT     MOSUNNY   85  61  44 E20G26    29.78R HAZE
MALTA            N/A     88  55  32 W14       29.81S
PLENTYWOOD       N/A     66  57  72 NE16      29.90S
POPLAR           N/A     79  63  57 E16G22    29.81R
SCOBEY           N/A     75  55  49 NE21      29.87S
$$

MTZ028>42-056>058-010100-
SOUTHCENTRAL AND SOUTHEAST MONTANA

CITY           SKY/WX    TMP DP  RH WIND       PRES   REMARKS
BAKER          MOSUNNY   89  54  30 NW18G28   29.82F
BILLINGS       MOSUNNY   94  42  16 N21G33    29.94S HX  90
LIVINGSTON     MOSUNNY   92  46  20 W13       30.01S
MILES CITY     MOSUNNY   95  49  20 NW20      29.79F HX  92
EKALAKA          N/A     87  50  27 NW10      29.87F
FORSYTH          N/A     93  43  17 W16G25    29.82S
LAUREL           N/A     93  47  20 NW16      29.93F
ROUNDUP          N/A     92  44  18 NW14      29.86R
$$

REGIONAL REPORTS...DAKOTAS

CITY           SKY/WX    TMP DP  RH WIND       PRES   REMARKS
WILLISTON      PTSUNNY   74  57  55 E16G29    29.86S HAZE
MINOT          CLOUDY    69  64  84 CALM      29.90S HAZE
DICKINSON      MOSUNNY   74  61  63 E15       29.84F
BEACH          FAIR      79  72  78 SE10      29.81F
CROSBY         HVY RAIN  63  63 100 NE7       29.94S VSB 1
BISMARCK       PTSUNNY   73  65  75 E10       29.89F
GRAND FORKS    CLOUDY    74  58  57 S5        29.91S
FARGO          CLOUDY    73  63  70 NE3       29.90F
BUFFALO SD       N/A     84  67  56 SE13      29.78F
RAPID CITY     SUNNY     83  67  58 NE8       29.89F
$$

REGIONAL REPORTS...WYOMING/IDAHO/WASHINGTON

CITY           SKY/WX    TMP DP  RH WIND       PRES   REMARKS
GILLETTE       MOSUNNY   88  54  31 NW13      29.97S
SHERIDAN       MOSUNNY   90  51  26 NW12      29.95S
BUFFALO WY     PTSUNNY   84  51  31 NW10      30.05S
CODY           MOSUNNY   82  52  34 NE9       30.06S
YELLOWSTONE LA   N/A     76  47  35 VRB6      30.31F
IDAHO FALLS    LGT RAIN  76  53  44 VRB5G22   30.09R
SALMON         SUNNY     93  50  22 NW10      29.92S HX  90
BOISE          SUNNY    102  42  13 NW14      29.90F HX  97
SPOKANE        MOSUNNY   92  43  18 VRB3      29.97F
$$

REGIONAL REPORTS...ALBERTA

CITY           SKY/WX    TMP DP  RH WIND       PRES   REMARKS
EDMONTON       PTSUNNY   70  54  56 CALM      29.95F
CALGARY        LGT RAIN  70  59  68 E7        30.04R SMOKE
LETHBRIDGE     MOSUNNY   79  57  47 NE13      29.99F
WATERTON GATE    N/A     79  59  50 E8          N/A
CARDSTON         N/A    N/A N/A N/A NE8         N/A
ONEFOUR          N/A     79  52  38 NW24        N/A
$$

REGIONAL REPORTS...SASKATCHEWAN

CITY           SKY/WX    TMP DP  RH WIND       PRES   REMARKS
SWIFT CURRENT  MOSUNNY   70  57  64 E22G29    29.92R HAZE
REGINA         CLOUDY    64  59  82 NE3       29.93F SMOKE
SASKATOON      PTSUNNY   72  61  68 W7        29.93F SMOKE
CYPRESS HILLS    N/A     68  54  60 N8G17       N/A
VAL MARIE        N/A     81  55  41 N16         N/A
$$


USA.gov is the U.S. government's official web portal to all federal, state and local government web resources and services.